Wind_Speed
28 29 29 30 31 33 34 34 35 37 38 39 40 42 43 44 45 45 46 47 48 50 51 52 52 53 54 54 56 58 59 60 61 61 62 62 62 62 62 61 60 60 60
27 28 29 29 30 31 33 35 36 37 39 41 42 44 45 46 46 47 48 50 52 53 54 55 56 57 58 58 59 61 63 63 64 65 66 65 64 63 62 60 60 60 61
27 28 28 29 29 31 32 34 36 37 39 41 43 44 45 46 46 48 50 53 54 55 57 58 59 60 61 62 63 64 66 67 67 67 67 67 66 65 61 59 59 59 60
28 28 29 29 30 31 33 34 36 38 39 41 43 44 46 46 47 50 52 54 56 57 59 60 61 63 64 65 66 68 69 69 69 68 67 67 66 64 62 60 59 59 60
29 29 30 31 31 32 33 35 36 38 40 42 44 46 47 48 51 52 54 55 57 59 60 62 63 65 66 67 68 70 70 70 69 68 67 66 64 63 62 61 60 61 61
31 32 32 33 34 35 36 37 38 40 42 43 45 47 49 51 53 54 56 57 59 60 61 63 65 66 68 69 70 71 71 70 69 68 67 65 64 63 63 62 62 63 63
34 34 35 36 37 37 38 39 41 42 44 45 47 49 50 53 54 56 57 59 60 61 62 64 66 67 69 70 71 71 70 70 69 67 66 65 64 65 64 64 64 65 64
36 36 37 38 39 40 41 42 43 45 46 47 49 50 52 54 55 57 58 60 61 62 63 65 66 68 69 70 70 70 69 69 68 67 66 67 66 66 66 67 67 67 67
37 38 39 40 42 43 44 45 46 47 48 49 51 52 54 55 56 57 59 60 62 63 64 65 66 67 67 68 69 68 68 68 68 68 68 68 68 68 68 69 69 70 69
39 39 40 41 42 43 44 45 46 47 49 50 51 53 55 56 57 58 59 60 62 63 64 65 65 65 66 67 68 68 68 68 68 67 68 68 68 68 69 70 70 70 70
38 39 39 40 41 42 43 44 45 47 49 51 52 54 55 56 57 57 58 60 61 62 62 63 64 64 65 66 66 66 67 67 66 67 68 68 68 68 69 69 69 69 69
38 39 40 40 41 42 43 44 45 47 48 50 51 52 53 55 56 56 57 58 59 60 61 61 62 63 64 64 65 65 66 67 67 67 68 67 68 67 68 68 67 67 68
39 40 41 42 43 44 45 46 47 47 48 49 49 50 52 53 54 55 56 57 58 59 60 61 61 62 63 64 65 65 66 66 66 66 66 66 66 66 67 67 66 66 67
41 42 42 43 45 45 46 47 48 48 49 49 50 51 52 53 54 55 55 56 57 58 59 60 60 62 63 63 63 64 65 66 65 65 64 64 65 66 66 66 66 66 67
43 44 45 46 47 48 48 49 49 50 50 51 52 52 54 55 56 56 56 57 57 58 59 60 61 62 63 63 63 64 65 64 64 63 63 64 65 65 65 65 66 66 67
46 47 48 49 50 50 51 51 52 52 53 54 54 54 55 56 56 57 58 58 58 59 59 59 60 61 61 62 63 64 64 63 62 62 64 64 64 64 64 65 66 66 66
49 51 52 52 53 54 54 54 55 55 56 56 57 57 57 57 57 58 58 59 59 59 59 59 60 59 59 60 61 62 62 62 62 62 64 64 63 64 65 65 65 64 64
54 55 56 56 57 57 57 57 58 58 58 59 59 59 59 58 58 57 57 57 58 58 59 59 59 58 58 59 61 62 62 62 61 62 62 62 62 62 62 62 62 61 61
58 59 60 60 60 60 60 60 60 60 60 60 60 60 59 58 57 57 57 57 57 57 58 58 58 58 58 60 61 62 62 61 60 60 60 60 59 59 59 59 58 58 57
62 63 63 63 63 63 62 62 62 61 61 61 60 60 59 58 57 57 57 57 57 57 57 56 57 58 58 59 60 61 61 60 60 59 58 57 57 57 57 56 55 54 55
66 66 66 66 65 65 64 63 63 62 61 60 60 59 59 58 57 57 57 57 56 55 55 55 56 57 57 58 58 58 58 57 56 56 55 54 54 54 53 53 53 53 53
69 69 69 68 67 66 65 64 63 62 61 60 59 58 58 58 57 57 56 56 55 55 55 55 55 55 55 55 55 55 55 56 55 53 52 52 51 51 51 51 51 51 51
71 70 70 68 67 66 65 64 62 61 60 59 58 58 57 57 57 56 55 54 54 54 54 54 53 52 52 52 53 54 54 54 53 52 51 50 49 48 48 48 48 48 47
72 71 70 68 66 65 64 63 62 60 59 58 57 57 56 55 54 54 54 53 53 52 52 52 52 51 51 51 51 52 52 52 51 49 48 47 46 45 45 44 45 45 45
71 70 69 67 65 63 62 62 61 60 58 57 56 55 54 53 52 52 51 51 51 51 51 50 50 49 48 49 50 50 50 49 47 46 45 44 44 43 42 42 42 42 42
69 68 66 65 63 62 61 60 59 58 57 55 54 53 52 51 50 49 49 49 49 49 49 48 48 48 47 47 48 49 48 46 45 44 43 42 41 40 40 40 40 39 39
Wind_Direction
294 291 288 284 282 280 278 275 273 273 272 272 271 271 271 272 273 274 276 277 278 280 283 285 287 288 290 291 292 293 294 294 295 295 295 296 296 297 297 296 295 293 292
299 297 294 291 287 284 282 280 278 276 276 275 274 274 275 275 276 276 277 277 278 280 283 285 287 288 289 290 291 292 293 294 294 295 295 295 295 295 295 294 294 293 291
301 299 297 295 292 288 285 283 282 280 279 278 278 277 277 278 278 278 277 277 279 281 282 284 286 288 289 290 291 292 293 293 294 294 295 295 294 293 292 292 291 290 290
303 301 299 296 293 290 287 285 283 282 281 279 279 278 278 278 278 277 277 278 279 281 282 284 286 287 288 289 290 291 292 293 294 294 294 294 294 294 293 291 291 290 290
304 303 300 297 295 292 289 287 285 284 282 281 280 279 280 279 278 279 279 280 280 281 283 284 285 286 287 289 290 291 292 293 294 294 294 294 294 294 294 292 292 291 290
306 304 300 297 295 293 290 288 286 284 282 281 281 280 280 280 280 280 281 281 281 282 283 284 284 286 287 288 289 290 292 293 293 294 294 295 294 294 294 293 293 292 292
304 301 298 296 294 292 291 289 287 285 284 283 282 281 281 281 281 281 281 281 282 282 283 283 284 285 286 287 288 290 291 292 293 294 294 294 294 294 294 294 294 293 292
303 300 298 296 295 294 292 290 289 287 285 284 283 282 282 282 282 282 282 283 283 283 283 284 285 286 286 287 288 289 291 292 293 293 294 294 294 294 294 294 294 293 293
306 303 300 299 298 296 294 292 290 288 287 286 285 284 283 283 283 283 283 284 284 285 285 285 285 286 287 288 289 290 291 291 292 293 293 294 294 294 293 294 294 294 293
307 303 301 300 298 297 295 293 291 289 288 287 286 285 285 284 284 284 284 285 285 286 286 287 287 287 287 288 289 290 290 291 292 292 292 293 293 293 294 294 293 293 293
306 305 304 302 301 299 297 296 294 292 290 289 287 286 285 285 285 285 285 285 286 286 286 287 288 288 289 289 289 290 290 290 291 292 292 292 292 293 293 293 293 293 293
310 309 308 307 306 304 303 301 299 297 294 292 290 289 287 287 287 287 287 287 287 287 288 288 289 290 290 290 291 291 290 291 291 291 291 292 292 293 293 293 293 293 293
313 312 311 310 309 308 307 305 303 302 300 297 295 292 291 290 290 289 289 289 289 289 289 289 290 291 291 291 291 291 290 291 292 291 291 292 292 292 293 293 293 292 292
313 312 312 311 310 310 309 308 307 305 303 300 298 296 294 293 292 291 291 291 291 291 290 291 291 291 291 291 291 291 292 292 292 292 292 292 292 292 293 293 293 292 292
312 312 312 312 311 310 310 309 308 307 305 303 301 298 296 295 294 292 292 292 292 292 291 291 291 291 291 291 291 291 292 293 293 292 292 292 292 293 293 292 292 292 292
311 311 311 311 311 310 310 309 308 307 306 304 303 301 299 297 295 293 293 293 293 293 293 292 292 292 292 292 292 292 293 293 293 293 293 292 292 292 292 293 292 292 292
310 310 310 310 310 309 309 308 308 307 306 305 303 302 300 299 296 295 295 294 293 293 294 294 293 293 293 294 294 294 294 294 293 293 293 293 292 292 292 292 292 292 292
309 309 310 309 309 309 308 307 307 307 306 305 304 302 301 300 298 297 296 295 295 295 295 294 294 294 294 294 294 295 295 295 294 294 294 294 293 292 292 292 292 292 293
308 308 308 308 308 307 307 306 306 306 305 305 304 302 301 300 299 298 297 297 297 297 296 295 294 294 294 295 295 296 296 296 296 295 295 295 294 293 293 293 293 294 294
306 306 306 306 306 306 306 305 305 305 305 304 304 302 301 300 299 298 298 298 298 297 297 296 296 296 296 296 296 297 297 297 297 297 297 296 294 294 293 293 293 293 293
305 305 306 306 305 305 305 304 304 304 304 303 303 302 300 300 299 299 299 298 298 298 298 298 297 297 297 298 298 298 299 299 299 299 298 296 296 295 295 294 294 294 293
304 304 305 305 305 304 304 304 304 303 303 302 301 301 300 299 299 299 299 298 298 298 298 299 299 299 299 299 299 300 300 300 300 299 298 297 296 296 295 295 295 294 294
303 304 304 304 304 304 303 303 303 302 302 301 300 300 300 300 300 299 299 299 299 299 299 300 299 300 300 300 300 301 302 302 301 300 298 298 297 297 296 296 295 295 295
303 303 303 303 303 303 302 302 302 301 301 300 300 300 300 300 300 300 300 300 300 300 301 301 300 301 301 301 302 303 303 303 302 301 299 299 298 297 297 296 296 295 295
303 303 302 303 303 302 302 301 301 300 300 300 300 300 301 301 301 301 301 301 301 301 302 302 302 302 302 302 303 304 305 304 303 302 301 300 298 297 296 295 295 295 295
302 302 302 302 302 302 301 301 300 300 300 300 301 302 302 302 303 302 302 302 302 303 303 304 304 304 304 304 305 306 305 304 303 302 302 300 298 297 296 295 295 296 297
Height
5808 5806 5805 5805 5803 5802 5800 5800 5799 5797 5795 5795 5794 5792 5791 5789 5788 5787 5785 5783 5780 5777 5774 5772 5770 5767 5764 5761 5757 5753 5749 5745 5741 5738 5735 5732 5727 5723 5718 5713 5708 5704 5699
5802 5800 5798 5797 5796 5794 5792 5791 5790 5789 5787 5786 5784 5783 5782 5781 5779 5778 5775 5772 5769 5766 5763 5760 5758 5754 5751 5748 5744 5739 5735 5731 5727 5722 5718 5715 5713 5708 5704 5699 5694 5688 5684
5796 5794 5792 5790 5788 5786 5784 5783 5781 5780 5779 5776 5775 5774 5772 5771 5769 5767 5764 5761 5758 5755 5752 5748 5744 5741 5737 5734 5729 5725 5720 5716 5712 5707 5702 5697 5694 5690 5689 5685 5680 5674 5669
5790 5788 5785 5783 5781 5778 5776 5774 5772 5770 5768 5766 5765 5763 5761 5760 5758 5754 5752 5749 5745 5742 5739 5735 5731 5727 5723 5719 5714 5709 5705 5700 5695 5691 5687 5681 5676 5672 5668 5666 5662 5657 5653
5784 5781 5778 5775 5773 5770 5768 5765 5763 5760 5758 5756 5754 5751 5750 5748 5744 5741 5739 5736 5732 5728 5725 5721 5716 5712 5707 5703 5698 5693 5688 5684 5679 5674 5670 5665 5660 5655 5650 5647 5644 5639 5635
5777 5774 5770 5767 5764 5762 5759 5756 5753 5750 5747 5744 5742 5739 5737 5734 5730 5727 5724 5721 5718 5715 5711 5705 5701 5696 5691 5687 5682 5676 5672 5667 5663 5657 5653 5648 5644 5640 5634 5630 5626 5621 5617
5769 5765 5762 5759 5756 5752 5749 5746 5743 5739 5736 5733 5730 5726 5723 5720 5716 5713 5709 5705 5702 5699 5695 5690 5685 5680 5675 5670 5665 5660 5655 5650 5646 5641 5636 5631 5628 5623 5618 5612 5608 5604 5600
5760 5756 5753 5749 5745 5742 5738 5735 5731 5728 5724 5720 5717 5713 5710 5706 5702 5698 5694 5690 5686 5683 5678 5674 5669 5665 5659 5654 5648 5643 5638 5633 5628 5624 5619 5614 5610 5605 5600 5595 5589 5585 5581
5750 5746 5742 5738 5735 5731 5727 5723 5719 5715 5711 5707 5703 5699 5695 5691 5687 5683 5679 5675 5670 5666 5661 5657 5653 5648 5643 5637 5631 5626 5622 5616 5611 5607 5602 5597 5592 5586 5581 5576 5571 5566 5562
5740 5736 5732 5728 5724 5720 5715 5711 5707 5703 5699 5694 5690 5686 5681 5677 5673 5668 5664 5659 5655 5650 5645 5640 5636 5631 5627 5621 5615 5610 5605 5599 5594 5589 5584 5579 5574 5568 5563 5558 5553 5547 5542
5731 5727 5722 5718 5714 5709 5705 5700 5695 5691 5686 5681 5676 5672 5667 5662 5658 5653 5649 5644 5640 5634 5629 5624 5619 5615 5610 5604 5598 5593 5587 5582 5577 5572 5567 5562 5556 5551 5545 5539 5534 5528 5523
5721 5717 5712 5708 5703 5698 5694 5689 5684 5678 5673 5668 5663 5658 5653 5648 5643 5639 5634 5629 5624 5619 5614 5608 5603 5598 5593 5587 5582 5576 5570 5565 5560 5555 5549 5544 5538 5532 5527 5521 5515 5510 5504
5712 5707 5703 5698 5693 5688 5683 5677 5672 5666 5661 5655 5650 5644 5639 5634 5629 5624 5619 5614 5609 5603 5598 5593 5587 5582 5576 5570 5564 5558 5553 5548 5542 5537 5531 5526 5520 5514 5508 5502 5497 5491 5485
5703 5698 5694 5688 5683 5677 5672 5666 5660 5654 5648 5642 5636 5630 5625 5619 5614 5609 5604 5599 5593 5588 5582 5577 5572 5566 5559 5553 5547 5541 5536 5530 5525 5519 5514 5508 5502 5496 5490 5484 5478 5472 5466
5694 5689 5684 5679 5673 5667 5661 5655 5648 5642 5635 5629 5623 5617 5611 5605 5599 5593 5588 5583 5577 5572 5566 5561 5555 5549 5543 5536 5530 5524 5518 5513 5507 5502 5496 5490 5484 5478 5471 5465 5460 5453 5447
5685 5679 5674 5668 5662 5655 5649 5643 5636 5630 5623 5616 5609 5602 5596 5590 5584 5578 5572 5566 5561 5555 5550 5544 5538 5532 5526 5519 5512 5506 5501 5495 5490 5484 5478 5472 5465 5459 5453 5447 5441 5435 5429
5674 5668 5662 5656 5649 5643 5636 5630 5623 5616 5609 5602 5595 5588 5581 5575 5568 5562 5556 5550 5545 5539 5534 5528 5522 5516 5509 5502 5495 5489 5483 5479 5473 5466 5460 5454 5448 5441 5435 5428 5422 5416 5410
5661 5655 5649 5642 5636 5629 5622 5616 5609 5602 5594 5587 5579 5572 5565 5559 5552 5546 5540 5534 5529 5523 5517 5511 5505 5499 5493 5485 5479 5472 5466 5461 5456 5449 5442 5436 5430 5423 5416 5411 5405 5399 5393
5648 5641 5634 5628 5621 5614 5607 5601 5594 5586 5579 5571 5564 5556 5549 5543 5536 5530 5524 5518 5512 5506 5500 5494 5488 5483 5476 5468 5461 5454 5449 5443 5438 5431 5425 5418 5412 5405 5398 5393 5389 5383 5377
5634 5627 5620 5613 5606 5599 5592 5585 5578 5570 5563 5555 5547 5539 5532 5526 5520 5514 5507 5501 5495 5490 5484 5478 5471 5465 5459 5451 5444 5437 5431 5426 5420 5414 5407 5401 5394 5388 5381 5376 5372 5367 5361
5618 5611 5604 5597 5589 5582 5575 5568 5561 5553 5546 5538 5531 5523 5516 5509 5503 5497 5491 5485 5479 5473 5468 5462 5456 5449 5442 5435 5427 5420 5414 5408 5402 5396 5390 5384 5377 5371 5365 5360 5356 5351 5345
5602 5594 5587 5580 5572 5564 5557 5551 5543 5536 5529 5522 5514 5507 5500 5493 5486 5481 5475 5468 5462 5457 5451 5446 5440 5432 5425 5418 5411 5404 5397 5391 5386 5380 5374 5368 5362 5356 5350 5345 5340 5335 5329
5584 5577 5570 5563 5555 5546 5539 5532 5526 5518 5512 5505 5498 5491 5484 5477 5470 5464 5458 5452 5446 5441 5435 5429 5424 5417 5410 5403 5396 5389 5382 5375 5369 5364 5358 5352 5347 5341 5336 5330 5325 5320 5315
5566 5559 5551 5545 5538 5530 5522 5514 5507 5501 5495 5488 5481 5474 5468 5462 5455 5448 5442 5436 5430 5424 5419 5413 5408 5402 5395 5388 5382 5374 5367 5360 5354 5348 5343 5337 5332 5327 5322 5317 5311 5306 5302
5548 5540 5533 5527 5520 5513 5505 5497 5490 5484 5478 5472 5465 5459 5452 5446 5440 5434 5427 5420 5415 5408 5403 5398 5392 5386 5381 5373 5367 5360 5353 5346 5340 5334 5329 5324 5319 5314 5309 5304 5299 5294 5289
5530 5523 5516 5509 5502 5495 5488 5481 5473 5467 5461 5456 5449 5443 5437 5431 5425 5419 5414 5406 5400 5394 5388 5382 5376 5371 5365 5359 5353 5346 5339 5333 5326 5321 5316 5310 5305 5301 5296 5292 5287 5283 5278